Latest Weather Observations for Bairnsdale

IDV60801

Issued at 3:02 pm EST Wednesday 29 July 2015 (issued every 30 minutes, with the page automatically refreshed every 10 minutes)

About weather observations | Map of weather stations | Latest weather observations for VIC | Other Formats
Station Details ID: 085279 Name: BAIRNSDALE AIRPORT Lat: -37.88 Lon: 147.57 Height: 49.4 m
Data from the previous 72 hours. | See also: Recent months at Bairnsdale
Date/Time
EST
Temp
°C
App
Temp
°C
Dew
Point
Rel
Hum
%
Delta-T
°C
Wind Press
QNH
hPa
Press
MSL
hPa
Rain
since 9 am
mm
Dir
 
Spd
km/h
Gust
km/h
Spd
kts
Gust
kts
29/03:00pm 12.6 10.1 4.8 59 3.6 SSE 7 13 4 7 1028.9 1029.1 0.0
29/02:30pm 12.9 10.3 3.3 52 4.2 SSW 6 9 3 5 1028.9 1029.1 0.0
29/02:00pm 13.4 10.9 3.5 51 4.4 NW 6 9 3 5 1029.6 1029.7 0.0
29/01:30pm 13.1 9.9 2.9 50 4.5 NNW 9 13 5 7 1030.1 1030.2 0.0
29/01:00pm 13.5 10.8 3.6 51 4.4 WNW 7 13 4 7 1030.4 1030.5 0.0
29/12:30pm 13.2 10.6 3.3 51 4.4 NW 6 9 3 5 1031.1 1031.2 0.0
29/12:00pm 12.9 9.9 4.3 56 3.9 NNW 9 13 5 7 1031.7 1031.8 0.0
29/11:30am 12.0 9.1 4.5 60 3.4 NW 9 13 5 7 1032.3 1032.4 0.0
29/11:00am 11.7 9.0 5.6 66 2.8 NW 9 13 5 7 1032.8 1032.9 0.0
29/10:30am 10.5 7.3 5.1 69 2.5 WNW 11 15 6 8 1033.2 1033.3 0.0
29/10:00am 8.8 6.0 5.2 78 1.6 WNW 9 13 5 7 1033.4 1033.5 0.0
29/09:30am 7.0 3.7 4.3 83 1.2 NNW 11 15 6 8 1033.5 1033.6 0.0
29/09:00am 6.3 3.3 4.0 85 1.0 N 9 11 5 6 1033.5 1033.6 0.0
29/08:30am 3.9 0.6 2.6 91 0.5 NNE 9 11 5 6 1033.6 1033.7 0.0
29/08:00am 4.0 0.0 2.7 91 0.5 NW 13 15 7 8 1033.6 1033.7 0.0
29/07:30am 2.8 -1.3 2.2 96 0.2 NW 13 17 7 9 1033.6 1033.7 0.0
29/07:00am 1.9 -2.7 1.8 99 0.0 NW 15 17 8 9 1033.3 1033.4 0.0
29/06:30am 0.5 -3.1 0.4 99 0.0 NW 9 13 5 7 1033.1 1033.2 0.0
29/06:00am 1.8 -2.4 1.7 99 0.0 N 13 15 7 8 1032.9 1033.0 0.0
29/05:30am 2.2 -1.5 2.1 99 0.0 NNW 11 13 6 7 1032.6 1032.7 0.0
29/05:00am 1.5 -2.4 1.4 99 0.0 NW 11 13 6 7 1032.8 1032.9 0.0
29/04:30am 2.1 -0.9 2.0 99 0.0 NNW 7 9 4 5 1032.8 1032.9 0.0
29/04:00am 1.9 -1.1 1.8 99 0.0 NNW 7 9 4 5 1032.8 1032.9 0.0
29/03:30am 2.1 -0.9 1.8 98 0.1 NW 7 11 4 6 1032.8 1032.9 0.0
29/03:00am 3.1 -0.9 2.8 98 0.1 NW 13 15 7 8 1032.8 1032.9 0.0
29/02:30am 3.4 0.2 3.1 98 0.1 NW 9 11 5 6 1033.2 1033.3 0.0
29/02:00am 3.9 -0.3 3.8 99 0.0 WNW 15 17 8 9 1033.4 1033.5 0.0
29/01:30am 3.7 -0.6 3.4 98 0.1 NW 15 17 8 9 1033.5 1033.6 0.0
29/01:00am 3.9 0.0 3.5 97 0.2 NW 13 17 7 9 1033.5 1033.6 0.0
29/12:30am 4.1 0.2 3.5 96 0.2 NW 13 17 7 9 1033.6 1033.7 0.0
29/12:00am 4.3 0.5 3.9 97 0.2 NW 13 15 7 8 1033.8 1033.9 0.0
 
Date/Time
EST
Temp
°C
App
Temp
°C
Dew
Point
Rel
Hum
%
Delta-T
°C
Wind Press
QNH
hPa
Press
MSL
hPa
Rain
since 9 am
mm
Dir
 
Spd
km/h
Gust
km/h
Spd
kts
Gust
kts
28/11:30pm 3.2 -0.1 2.3 94 0.4 NW 9 13 5 7 1034.0 1034.1 0.0
28/11:00pm 4.5 1.1 3.9 96 0.2 NW 11 15 6 8 1033.9 1034.0 0.0
28/10:30pm 3.2 -0.1 2.2 93 0.4 NW 9 11 5 6 1033.7 1033.8 0.0
28/10:00pm 5.3 2.2 3.8 90 0.6 NNW 9 13 5 7 1033.7 1033.8 0.0
28/09:30pm 5.7 2.3 3.9 88 0.8 W 11 15 6 8 1033.6 1033.7 0.0
28/09:00pm 6.5 3.2 4.3 86 0.9 W 11 15 6 8 1033.6 1033.7 0.0
28/08:30pm 6.2 2.5 4.2 87 0.9 WNW 13 15 7 8 1033.6 1033.7 0.0
28/08:00pm 6.9 3.9 3.9 81 1.3 WNW 9 13 5 7 1033.6 1033.7 0.0
28/07:30pm 8.9 4.6 5.3 78 1.6 W 17 24 9 13 1033.5 1033.6 0.0
28/07:00pm 8.9 5.0 5.5 79 1.5 W 15 20 8 11 1033.2 1033.3 0.0
28/06:30pm 8.1 4.5 4.9 80 1.4 WSW 13 20 7 11 1032.9 1033.0 0.0
28/06:00pm 8.9 5.3 4.9 76 1.8 WSW 13 17 7 9 1032.7 1032.8 0.0
28/05:30pm 10.2 5.9 5.4 72 2.2 WSW 17 20 9 11 1032.4 1032.5 0.0
28/05:00pm 11.9 7.1 5.8 66 2.8 WSW 20 28 11 15 1032.1 1032.2 0.0
28/04:30pm 12.1 8.1 6.6 69 2.6 WSW 17 24 9 13 1032.2 1032.3 0.0
28/04:00pm 12.6 8.0 6.4 66 2.9 WSW 20 32 11 17 1032.1 1032.2 0.0
28/03:30pm 12.7 8.1 6.7 67 2.9 WSW 20 30 11 16 1032.1 1032.2 0.0
28/03:00pm 13.2 7.4 6.1 62 3.3 WSW 26 33 14 18 1031.9 1032.0 0.0
28/02:30pm 12.8 7.1 6.6 66 3.0 WSW 26 39 14 21 1031.9 1032.0 0.0
28/02:00pm 12.6 7.7 6.9 68 2.7 W 22 30 12 16 1032.1 1032.2 0.0
28/01:30pm 12.7 7.8 6.7 67 2.9 WSW 22 30 12 16 1032.2 1032.3 0.0
28/01:00pm 13.1 7.4 6.5 64 3.1 WSW 26 37 14 20 1032.4 1032.5 0.0
28/12:30pm 13.4 9.0 7.2 66 3.0 WSW 20 24 11 13 1032.5 1032.6 0.0
28/12:00pm 13.8 8.1 6.9 63 3.3 W 26 41 14 22 1032.9 1033.0 0.0
28/11:30am 13.0 7.8 7.2 68 2.8 W 24 33 13 18 1033.3 1033.4 0.0
28/11:00am 12.5 6.9 7.0 69 2.6 W 26 39 14 21 1033.7 1033.8 0.0
28/10:30am 11.7 6.0 6.8 72 2.3 W 26 37 14 20 1033.8 1033.9 0.0
28/10:00am 11.9 7.1 7.2 73 2.2 W 22 32 12 17 1033.6 1033.7 0.0
28/09:30am 11.0 5.0 6.9 76 1.9 W 28 39 15 21 1033.3 1033.4 0.0
28/09:00am 10.8 5.9 6.7 76 1.9 W 22 33 12 18 1033.0 1033.1 0.0
28/08:30am 10.3 6.0 6.8 79 1.7 W 19 28 10 15 1032.7 1032.8 0.0
28/08:00am 9.9 5.9 6.8 81 1.4 W 17 22 9 12 1032.3 1032.4 0.0
28/07:30am 9.5 6.2 6.4 81 1.4 WNW 13 19 7 10 1032.1 1032.2 0.0
28/07:00am 9.3 5.6 6.2 81 1.4 W 15 19 8 10 1031.7 1031.8 0.0
28/06:30am 9.1 4.4 6.2 82 1.3 WNW 20 28 11 15 1031.1 1031.2 0.0
28/06:00am 8.9 3.8 6.0 82 1.3 W 22 28 12 15 1030.7 1030.8 0.0
28/05:30am 9.3 4.6 6.0 80 1.5 W 20 26 11 14 1030.4 1030.5 0.0
28/05:00am 9.2 5.4 5.9 80 1.5 WNW 15 20 8 11 1030.2 1030.3 0.0
28/04:30am 8.9 4.7 5.8 81 1.4 W 17 22 9 12 1030.0 1030.1 0.0
28/04:00am 9.1 4.5 5.5 78 1.6 W 19 24 10 13 1029.8 1029.9 0.0
28/03:30am 8.5 4.1 4.5 76 1.8 W 17 24 9 13 1029.6 1029.7 0.0
28/03:00am 8.8 4.6 4.0 72 2.1 WNW 15 19 8 10 1029.3 1029.5 0.0
28/02:30am 10.0 4.2 4.4 68 2.5 W 24 33 13 18 1029.2 1029.4 0.0
28/02:00am 10.0 5.5 4.4 68 2.5 W 17 22 9 12 1029.2 1029.4 0.0
28/01:30am 9.5 4.6 4.1 69 2.4 WNW 19 28 10 15 1028.9 1029.1 0.0
28/01:00am 8.9 5.1 3.7 70 2.2 WNW 13 17 7 9 1028.7 1028.8 0.0
28/12:30am 9.4 4.9 4.0 69 2.4 WNW 17 22 9 12 1028.7 1028.8 0.0
28/12:00am 9.3 4.4 4.1 70 2.3 W 19 24 10 13 1028.8 1028.9 0.0
 
Date/Time
EST
Temp
°C
App
Temp
°C
Dew
Point
Rel
Hum
%
Delta-T
°C
Wind Press
QNH
hPa
Press
MSL
hPa
Rain
since 9 am
mm
Dir
 
Spd
km/h
Gust
km/h
Spd
kts
Gust
kts
27/11:30pm 9.4 4.5 4.0 69 2.4 WNW 19 24 10 13 1029.0 1029.2 0.0
27/11:00pm 9.2 4.3 4.0 70 2.3 W 19 28 10 15 1029.1 1029.3 0.0
27/10:30pm 9.4 3.9 4.0 69 2.4 W 22 32 12 17 1029.0 1029.2 0.0
27/10:00pm 9.9 3.7 4.3 68 2.5 W 26 39 14 21 1028.9 1029.1 0.0
27/09:30pm 9.5 4.6 4.1 69 2.4 W 19 28 10 15 1028.8 1028.9 0.0
27/09:00pm 8.1 3.5 3.6 73 1.9 WNW 17 19 9 10 1028.5 1028.6 0.0
27/08:30pm 7.8 3.5 3.3 73 1.9 WNW 15 19 8 10 1028.6 1028.7 0.0
27/08:00pm 8.5 4.3 3.8 72 2.0 WNW 15 22 8 12 1028.6 1028.7 0.0
27/07:30pm 9.0 3.9 4.0 71 2.2 W 20 28 11 15 1028.3 1028.4 0.0
27/07:00pm 9.3 3.8 4.1 70 2.3 W 22 33 12 18 1028.1 1028.2 0.0
27/06:30pm 8.9 2.6 3.7 70 2.3 W 26 35 14 19 1027.8 1027.9 0.0
27/06:00pm 9.4 2.8 4.0 69 2.4 W 28 39 15 21 1027.2 1027.3 0.0
27/05:30pm 9.5 2.5 4.3 70 2.3 W 30 43 16 23 1026.8 1026.9 0.0
27/05:00pm 9.6 3.0 4.2 69 2.4 W 28 44 15 24 1026.4 1026.5 0.0
27/04:44pm 10.2 3.2 4.1 66 2.7 W 30 48 16 26 1026.3 1026.4 0.0
27/04:30pm 10.6 3.3 4.3 65 2.8 W 32 48 17 26 1026.1 1026.2 0.0
27/04:00pm 10.8 3.2 4.0 63 3.0 W 33 54 18 29 1025.8 1025.9 0.0
27/03:59pm 10.8 3.2 3.8 62 3.1 W 33 54 18 29 1025.8 1025.9 0.0
27/03:30pm 11.5 4.5 4.3 61 3.2 W 30 44 16 24 1025.5 1025.6 0.0
27/03:00pm 11.4 5.2 4.4 62 3.1 W 26 37 14 20 1025.2 1025.3 0.0
27/02:55pm 11.3 4.7 4.3 62 3.1 W 28 46 15 25 1025.1 1025.2 0.0
27/02:30pm 11.8 4.9 4.5 61 3.3 WSW 30 41 16 22 1025.1 1025.2 0.0
27/02:00pm 12.2 4.3 4.4 59 3.5 W 35 48 19 26 1024.7 1024.8 0.0
27/01:33pm 12.5 4.3 4.7 59 3.6 WSW 37 56 20 30 1024.7 1024.8 0.0
27/01:30pm 11.9 3.2 4.2 59 3.5 WSW 39 56 21 30 1024.7 1024.8 0.0
27/01:20pm 12.0 4.5 3.5 56 3.8 W 32 50 17 27 1024.7 1024.8 0.0
27/01:00pm 12.2 4.7 4.4 59 3.5 W 33 46 18 25 1024.5 1024.6 0.0
27/12:33pm 11.8 4.7 3.8 58 3.6 W 30 50 16 27 1025.1 1025.2 0.0
27/12:30pm 12.0 5.1 4.5 60 3.4 W 30 41 16 22 1025.2 1025.3 0.0
27/12:00pm 11.4 3.5 4.4 62 3.1 W 35 46 19 25 1025.3 1025.4 0.0
27/11:31am 11.0 3.5 4.7 65 2.9 W 33 52 18 28 1025.6 1025.7 0.0
27/11:30am 10.6 2.6 3.9 63 3.0 WNW 35 52 19 28 1025.5 1025.6 0.0
27/11:27am 10.8 3.2 4.0 63 3.0 W 33 52 18 28 1025.4 1025.5 0.0
27/11:00am 10.3 2.9 4.2 66 2.7 W 32 48 17 26 1025.6 1025.7 0.0
27/10:30am 9.6 2.2 4.0 68 2.5 W 32 43 17 23 1026.2 1026.3 0.0
27/10:00am 8.9 2.2 3.5 69 2.3 W 28 41 15 22 1025.5 1025.6 0.0
27/09:32am 8.9 2.1 3.1 67 2.5 W 28 52 15 28 1024.9 1025.0 0.0
27/09:30am 9.0 2.6 3.4 68 2.4 W 26 39 14 21 1024.8 1024.9 0.0
27/09:00am 8.3 1.1 2.8 68 2.3 W 30 43 16 23 1024.7 1024.8 0.0
27/08:30am 7.7 1.2 2.4 69 2.2 W 26 39 14 21 1024.1 1024.2 0.0
27/08:00am 6.8 1.3 1.9 71 2.0 W 20 32 11 17 1023.9 1024.0 0.0
27/07:30am 6.6 1.3 1.7 71 2.0 WNW 19 30 10 16 1023.4 1023.5 0.0
27/07:00am 6.9 1.4 1.6 69 2.1 WNW 20 30 11 16 1023.0 1023.1 0.0
27/06:30am 6.4 1.0 1.3 70 2.0 W 19 26 10 14 1022.5 1022.6 0.0
27/06:00am 6.7 1.7 1.6 70 2.1 W 17 24 9 13 1022.1 1022.2 0.0
27/05:30am 6.4 0.8 1.3 70 2.0 W 20 30 11 16 1021.7 1021.8 0.0
27/05:00am 7.1 1.6 1.6 68 2.2 W 20 30 11 16 1021.7 1021.8 0.0
27/04:30am 6.9 1.0 1.4 68 2.2 W 22 33 12 18 1021.1 1021.2 0.0
27/04:00am 7.3 1.8 1.8 68 2.2 WNW 20 32 11 17 1020.8 1020.9 0.0
27/03:30am 7.2 -0.2 1.9 69 2.2 W 30 44 16 24 1020.5 1020.6 0.0
27/03:00am 6.9 1.0 2.0 71 2.0 W 22 39 12 21 1020.2 1020.3 0.0
27/02:30am 7.5 0.1 1.8 67 2.3 W 30 41 16 22 1019.8 1019.9 0.0
27/02:11am 7.2 0.2 1.9 69 2.2 W 28 48 15 26 1019.7 1019.8 0.0
27/02:00am 7.4 -0.3 2.3 70 2.1 W 32 41 17 22 1019.7 1019.8 0.0
27/01:30am 8.1 2.6 0.6 59 3.0 W 19 43 10 23 1019.4 1019.5 0.0
27/01:00am 7.8 1.3 0.3 59 3.0 W 24 35 13 19 1018.8 1018.9 0.0
27/12:30am 7.9 1.4 0.2 58 3.0 WNW 24 32 13 17 1018.3 1018.4 0.0
27/12:00am 7.8 1.6 -0.2 57 3.1 W 22 32 12 17 1018.3 1018.4 0.0
 
Date/Time
EST
Temp
°C
App
Temp
°C
Dew
Point
Rel
Hum
%
Delta-T
°C
Wind Press
QNH
hPa
Press
MSL
hPa
Rain
since 9 am
mm
Dir
 
Spd
km/h
Gust
km/h
Spd
kts
Gust
kts
26/11:30pm 8.4 1.5 -0.1 55 3.4 WNW 26 32 14 17 1018.1 1018.2 0.0
26/11:00pm 8.5 1.9 -0.5 53 3.5 WNW 24 39 13 21 1017.9 1018.0 0.0
26/10:30pm 8.3 1.7 -0.7 53 3.5 WNW 24 32 13 17 1017.5 1017.6 0.0
26/10:00pm 8.5 1.5 -0.5 53 3.5 WNW 26 37 14 20 1017.4 1017.5 0.0
26/09:30pm 8.1 1.5 -0.6 54 3.4 WNW 24 35 13 19 1017.1 1017.2 0.0
26/09:00pm 8.1 1.1 -0.6 54 3.4 WNW 26 39 14 21 1016.8 1016.9 0.0
26/08:30pm 7.7 0.3 -0.8 55 3.3 WNW 28 41 15 22 1016.5 1016.6 0.0
26/08:24pm 7.5 0.1 -0.7 56 3.2 WNW 28 39 15 21 1016.4 1016.5 0.0
26/08:00pm 5.9 0.6 -0.6 63 2.5 WNW 17 20 9 11 1016.3 1016.4 0.0
26/07:30pm 6.4 0.7 -0.6 61 2.7 NW 19 26 10 14 1015.4 1015.5 0.0
26/07:00pm 6.6 1.0 -0.1 62 2.6 NW 19 28 10 15 1015.2 1015.3 0.0
26/06:30pm 7.2 0.6 -0.3 59 2.9 NW 24 35 13 19 1014.9 1015.0 0.0
26/06:00pm 7.7 0.7 -0.5 56 3.2 WNW 26 41 14 22 1014.5 1014.6 0.0
26/05:32pm 8.3 0.9 -0.4 54 3.4 WNW 28 52 15 28 1013.5 1013.6 0.0
26/05:30pm 7.9 1.3 -0.1 57 3.1 WNW 24 37 13 20 1013.7 1013.8 0.0
26/05:00pm 9.1 2.1 -0.5 51 3.8 WNW 26 37 14 20 1013.4 1013.5 0.0
26/04:30pm 9.3 3.9 1.5 58 3.2 WNW 19 24 10 13 1013.0 1013.1 0.0
26/04:00pm 9.5 2.5 1.7 58 3.3 W 28 39 15 21 1012.8 1012.9 0.0
26/03:32pm 10.2 1.0 1.1 53 3.8 WNW 39 59 21 32 1012.8 1012.9 0.0
26/03:30pm 10.3 1.0 0.9 52 3.9 WNW 39 54 21 29 1012.7 1012.8 0.0
26/03:04pm 11.7 4.0 -0.1 44 4.8 W 30 52 16 28 1011.8 1011.8 0.0

Other Formats:

Comma delimited format used in spreadsheet applications
http://www.bom.gov.au/fwo/IDV60801/IDV60801.94912.axf

JavaScript Object Notation format (JSON) in row-major order
http://www.bom.gov.au/fwo/IDV60801/IDV60801.94912.json